Wind_Speed
25 26 28 30 42 52 50 44 44 45 44 38 33 31 24 24 39 42 42 34 32 29 27 26 21 18 17 14 7 12 9 6 8
23 24 29 36 39 41 39 49 46 52 49 44 45 44 42 38 34 38 43 36 32 32 29 26 21 21 22 21 15 12 8 11 11
25 22 21 26 33 39 42 43 46 46 51 54 53 55 56 54 43 43 42 38 33 33 31 27 22 21 21 24 19 18 20 17 16
26 28 27 25 28 35 36 28 32 36 42 45 49 45 44 49 48 47 42 40 37 35 32 28 24 23 25 23 22 23 26 18 13
29 26 21 20 19 23 21 23 28 28 31 37 39 39 41 42 42 42 43 39 35 35 32 27 22 24 29 25 27 19 25 16 22
27 30 30 22 18 20 27 26 25 24 23 27 33 33 33 35 38 39 38 41 43 39 33 34 32 29 30 29 21 33 26 25 22
29 28 33 35 30 26 25 25 27 26 23 24 28 29 29 32 35 37 36 36 42 43 40 40 39 38 33 32 31 31 36 32 30
25 28 31 35 30 29 26 26 27 25 24 21 25 27 27 30 34 36 36 36 38 42 43 43 40 38 36 34 32 30 42 45 44
26 29 33 34 34 28 27 25 27 23 21 17 20 24 27 29 30 34 36 35 35 38 40 42 41 38 37 36 36 37 36 50 56
24 28 35 36 35 32 32 30 28 24 21 17 15 22 28 29 29 30 33 34 33 34 38 40 41 42 42 37 32 35 34 41 53
17 22 32 29 31 30 32 33 31 23 20 18 13 17 22 25 26 26 28 31 33 33 32 33 36 39 42 43 41 35 37 39 41
18 22 27 30 26 29 26 22 28 24 18 15 12 11 15 18 20 22 23 26 28 31 31 31 32 35 35 40 41 40 40 43 44
24 28 28 26 26 23 22 26 25 23 16 13 4 3 5 6 8 11 14 18 18 25 29 33 34 35 34 36 39 41 42 43 53
12 14 24 32 32 32 32 24 20 19 7 4 6 9 10 7 6 14 21 16 16 23 28 35 38 37 35 33 33 35 41 45 45
3 11 29 37 40 27 23 19 12 9 8 16 18 15 11 12 17 13 26 36 37 43 43 38 39 34 35 36 33 34 36 42 44
21 11 17 41 32 38 25 17 5 13 23 23 20 20 10 11 22 29 40 38 46 48 57 47 42 44 39 36 36 36 40 40 43
10 2 10 52 36 33 21 18 6 21 24 24 13 4 24 40 44 41 54 44 46 50 51 46 53 57 49 47 47 47 44 45 46
24 31 52 61 49 36 24 15 15 15 28 34 28 31 34 46 56 43 37 42 46 48 56 57 55 54 52 52 54 54 55 52 53
36 41 15 48 65 61 50 47 29 27 27 36 42 45 39 45 47 52 57 53 47 49 50 52 59 66 65 55 58 59 59 59 60
21 20 35 40 60 66 67 64 43 32 37 36 42 46 36 39 43 45 41 46 49 51 55 53 54 57 57 71 71 71 72 70 70
Wind_Direction
270 263 265 263 254 253 253 250 242 243 245 249 244 237 253 268 266 261 258 249 246 240 244 252 254 257 244 238 242 266 255 270 277
267 264 270 270 274 266 268 260 262 257 246 252 251 251 251 263 281 263 253 244 241 244 244 243 245 258 245 245 247 215 237 261 254
287 283 278 275 280 277 280 275 269 264 260 260 266 265 259 268 271 273 249 238 235 239 240 245 247 252 240 236 236 227 240 260 271
303 302 296 284 281 274 271 274 276 274 265 266 268 269 269 269 271 263 244 237 233 235 241 241 242 244 241 238 231 228 235 239 268
299 301 297 294 305 257 266 287 277 272 271 261 257 258 261 262 252 242 236 231 229 233 239 242 239 243 242 239 225 215 220 222 248
301 301 301 299 284 273 275 287 302 291 278 265 252 251 252 249 242 236 236 230 231 233 231 233 239 240 239 231 236 224 224 200 224
297 292 289 292 297 295 296 304 310 305 295 278 255 247 248 247 240 234 232 231 229 232 233 234 240 243 247 245 240 236 223 218 220
294 291 284 280 283 289 295 302 302 300 298 282 258 248 245 244 239 236 234 232 233 233 234 240 242 245 246 243 242 236 232 231 222
299 297 293 292 292 290 291 297 298 297 295 291 265 248 244 244 239 235 236 237 238 239 239 239 241 244 247 249 246 246 239 232 233
308 322 317 286 281 290 294 292 296 297 299 300 270 256 245 241 240 238 241 243 245 247 246 247 248 248 248 247 242 242 242 244 240
309 324 329 323 281 288 288 289 291 297 300 299 274 254 247 242 241 243 243 246 249 253 254 253 251 251 250 249 248 246 240 241 238
286 311 322 318 296 289 293 290 290 295 295 302 286 256 253 252 252 252 254 255 258 262 263 262 257 252 254 250 251 249 242 239 239
302 307 316 311 306 291 275 291 289 292 309 330 341 263 291 297 283 290 288 283 278 273 272 267 265 256 254 250 251 252 247 245 243
322 349 4 346 316 296 286 287 272 284 312 2 84 91 63 32 7 352 333 324 312 285 284 282 274 266 256 256 255 253 249 249 253
36 343 350 347 344 330 314 300 264 251 144 106 85 61 24 347 304 283 287 287 290 295 292 279 271 270 269 261 259 262 260 255 255
240 248 332 337 342 340 345 334 239 169 139 126 100 52 16 309 290 266 271 275 279 285 284 276 268 273 268 267 265 264 261 261 264
179 129 192 259 314 324 327 347 272 192 173 174 181 151 259 279 249 251 266 261 269 274 277 274 275 278 271 268 270 266 265 262 260
191 201 209 244 277 290 292 314 328 246 219 253 251 206 237 236 231 248 241 254 263 265 269 271 266 270 267 269 269 269 269 271 268
225 209 240 248 256 270 274 278 302 318 300 278 255 245 240 231 232 230 241 247 248 254 261 263 266 268 264 262 266 269 269 269 268
191 226 204 240 257 260 265 275 279 303 315 308 274 248 238 238 223 228 251 247 252 262 263 264 271 270 273 266 262 265 266 264 263
Height
10908 10909 10909 10908 10906 10906 10907 10912 10915 10914 10917 10919 10921 10922 10926 10928 10930 10931 10933 10935 10936 10940 10942 10944 10945 10946 10948 10948 10948 10952 10953 10953 10954
10904 10904 10903 10899 10897 10897 10899 10901 10903 10905 10907 10910 10912 10913 10916 10919 10921 10922 10923 10925 10928 10931 10934 10937 10938 10940 10942 10944 10945 10947 10949 10950 10950
10897 10899 10901 10899 10895 10891 10889 10889 10890 10890 10895 10896 10897 10902 10905 10907 10909 10913 10915 10917 10921 10923 10926 10930 10933 10936 10939 10939 10941 10943 10945 10946 10947
10892 10892 10890 10890 10889 10886 10883 10881 10878 10878 10880 10882 10884 10887 10890 10894 10897 10900 10903 10907 10913 10917 10919 10923 10928 10931 10933 10934 10936 10938 10939 10942 10943
10883 10882 10882 10881 10880 10882 10880 10878 10874 10871 10871 10873 10875 10877 10879 10883 10886 10888 10892 10898 10905 10910 10912 10916 10922 10925 10926 10929 10931 10933 10936 10937 10940
10878 10873 10871 10872 10873 10873 10871 10868 10866 10864 10864 10863 10865 10866 10870 10873 10877 10880 10884 10889 10896 10902 10906 10910 10914 10918 10920 10923 10926 10928 10931 10931 10935
10874 10870 10866 10863 10865 10864 10861 10857 10855 10854 10854 10854 10855 10857 10861 10865 10869 10872 10876 10881 10886 10891 10897 10899 10904 10908 10912 10915 10919 10922 10924 10926 10928
10872 10867 10862 10857 10859 10856 10853 10850 10849 10846 10845 10845 10846 10849 10853 10858 10861 10864 10868 10872 10877 10882 10888 10891 10895 10897 10901 10905 10910 10913 10917 10917 10919
10865 10861 10857 10852 10849 10848 10845 10844 10843 10841 10840 10839 10839 10841 10844 10849 10854 10857 10860 10864 10869 10874 10879 10882 10886 10889 10893 10896 10899 10902 10905 10907 10909
10852 10849 10844 10839 10835 10837 10836 10837 10838 10835 10833 10831 10832 10835 10838 10843 10848 10852 10856 10859 10862 10866 10869 10873 10878 10881 10884 10887 10889 10891 10893 10895 10898
10846 10841 10834 10829 10829 10830 10829 10828 10829 10829 10827 10826 10826 10830 10834 10836 10840 10844 10848 10851 10854 10858 10861 10865 10868 10870 10873 10877 10880 10881 10883 10886 10888
10839 10836 10831 10827 10825 10824 10822 10821 10821 10823 10823 10823 10824 10827 10831 10833 10836 10840 10844 10846 10849 10851 10855 10857 10859 10862 10865 10867 10869 10871 10873 10876 10880
10835 10830 10825 10821 10818 10818 10818 10818 10817 10819 10821 10822 10824 10825 10828 10832 10836 10839 10841 10843 10845 10847 10850 10852 10854 10856 10857 10858 10858 10860 10863 10866 10869
10830 10828 10824 10821 10816 10813 10813 10816 10815 10816 10817 10816 10821 10824 10826 10830 10833 10834 10839 10841 10846 10847 10845 10846 10848 10849 10849 10849 10849 10852 10855 10856 10859
10825 10822 10822 10820 10818 10812 10809 10809 10810 10813 10812 10812 10817 10822 10825 10829 10832 10835 10838 10839 10839 10840 10841 10838 10838 10840 10842 10842 10842 10843 10845 10848 10849
10813 10812 10806 10818 10819 10818 10811 10807 10810 10810 10810 10802 10802 10815 10828 10833 10832 10832 10832 10834 10831 10827 10826 10826 10826 10829 10829 10831 10834 10835 10837 10837 10838
10807 10801 10802 10819 10820 10817 10814 10809 10807 10805 10801 10793 10788 10798 10835 10815 10819 10816 10821 10827 10825 10822 10817 10814 10814 10814 10818 10819 10820 10823 10826 10827 10828
10788 10795 10800 10807 10804 10811 10810 10808 10804 10803 10801 10795 10796 10795 10796 10794 10796 10806 10807 10809 10812 10813 10809 10806 10802 10802 10803 10804 10807 10808 10810 10812 10813
10774 10780 10792 10795 10795 10793 10795 10799 10799 10793 10786 10784 10783 10782 10781 10783 10786 10784 10786 10788 10793 10794 10795 10793 10791 10790 10791 10792 10792 10792 10793 10793 10796
10773 10768 10766 10774 10773 10773 10778 10782 10787 10781 10776 10776 10774 10774 10771 10769 10771 10775 10784 10784 10783 10782 10781 10780 10779 10778 10776 10775 10776 10777 10777 10777 10778